This is the latest recevied weather packets stored in our database for station/object K4PAD. If no packets are shown the sender has not sent any weather packets the latest 10 day(s).
| Time | Temp. | Humidity | Pressure | Rain* | Wind** | Luminosity | Snow |
|---|---|---|---|---|---|---|---|
| 1777556788 | 24.44° C | 82% | 1012.8 hPa | 0 mm | - | 258 W/m² | - |
| 1777556485 | 24.44° C | 81% | 1012.9 hPa | 0 mm | - | 236 W/m² | - |
| 1777556184 | 24.44° C | 82% | 1012.4 hPa | 0 mm | - | 221 W/m² | - |
| 1777555880 | 24.44° C | 81% | 1012.2 hPa | 0 mm | - | 260 W/m² | - |
| 1777555576 | 24.44° C | 83% | 1012.2 hPa | 0 mm | - | 291 W/m² | - |
| 1777555273 | 23.89° C | 84% | 1012.3 hPa | 0 mm | - | 470 W/m² | - |
| 1777554969 | 23.89° C | 84% | 1012.3 hPa | 0 mm | - | 362 W/m² | - |
| 1777554667 | 23.33° C | 86% | 1012.2 hPa | 0 mm | - | 284 W/m² | - |
| 1777554363 | 23.33° C | 86% | 1012.6 hPa | 0 mm | - | 133 W/m² | - |
| 1777554060 | 23.33° C | 86% | 1012.5 hPa | 0 mm | - | 193 W/m² | - |
| 1777553756 | 23.33° C | 86% | 1012.6 hPa | 0 mm | - | 157 W/m² | - |
| 1777553454 | 23.33° C | 86% | 1012.6 hPa | 0 mm | - | 162 W/m² | - |
| 1777553150 | 23.33° C | 87% | 1012.7 hPa | 0 mm | - | 168 W/m² | - |
| 1777552850 | 23.33° C | 87% | 1012.6 hPa | 0 mm | - | 152 W/m² | - |
| 1777552545 | 22.78° C | 87% | 1012.4 hPa | 0 mm | - | 136 W/m² | - |
| 1777552242 | 22.78° C | 87% | 1012.6 hPa | 0 mm | - | 123 W/m² | - |
| 1777551939 | 22.78° C | 88% | 1012.5 hPa | 0 mm | - | 147 W/m² | - |
| 1777551636 | 22.78° C | 88% | 1012.5 hPa | 0 mm | - | 143 W/m² | - |
| 1777551334 | 22.22° C | 88% | 1012.4 hPa | 0 mm | - | 110 W/m² | - |
| 1777551030 | 22.22° C | 88% | 1012.4 hPa | 0 mm | - | 57 W/m² | - |
| 1777550727 | 22.22° C | 88% | 1012.2 hPa | 0 mm | - | 45 W/m² | - |
| 1777550423 | 22.22° C | 88% | 1012.4 hPa | 0 mm | - | 36 W/m² | - |
| 1777550120 | 22.22° C | 88% | 1012.1 hPa | 0 mm | - | 36 W/m² | - |
| 1777549816 | 22.22° C | 88% | 1012.1 hPa | 0 mm | - | 49 W/m² | - |
| 1777549512 | 22.22° C | 88% | 1012.2 hPa | 0 mm | - | 47 W/m² | - |
* Rain latest hour (hover to see other rain measurements)
** Current wind speed in m/s (hover to see current wind gust speed)